Theta_e
307 308 308 305 303 303 304 305 306 305 305 304 301 301 301 302 304 305 306 307 311 309 313 312 311 313 314 313 314 317 315 318 320 323 322 323 323 325 326 329 328 328 327 327 327
308 309 307 304 304 305 305 304 303 303 303 303 302 301 301 302 305 307 309 309 313 314 314 312 311 314 313 315 316 315 313 315 319 321 321 323 323 324 324 325 327 328 327 327 328
307 307 304 303 304 304 305 307 306 303 302 303 302 301 302 304 312 320 317 314 313 315 315 311 309 310 311 314 316 315 314 316 317 318 320 322 322 323 323 321 324 327 328 328 329
305 304 302 304 305 309 310 310 309 307 302 302 301 301 302 305 319 317 311 309 309 310 310 308 313 315 311 310 314 314 316 317 318 319 319 318 319 319 321 322 323 327 328 327 327
305 303 303 305 309 310 310 311 305 305 302 302 301 302 304 313 316 320 311 310 310 307 310 315 315 312 311 312 313 312 313 316 318 318 318 319 318 318 319 321 323 324 325 326 326
306 303 305 308 310 310 311 310 305 301 302 302 301 302 306 316 319 317 313 316 317 316 316 316 316 315 313 311 310 313 314 314 316 316 316 316 317 318 319 320 322 326 325 325 328
306 306 306 309 310 310 311 310 308 308 303 301 302 303 305 313 318 317 315 316 316 315 315 314 314 315 314 312 313 314 313 312 314 316 315 317 315 316 319 319 322 327 327 327 327
306 307 307 309 310 311 310 311 311 311 309 307 303 304 306 314 317 317 317 316 315 315 314 314 314 314 314 314 313 312 312 313 312 315 316 315 315 315 318 318 319 320 327 327 327
307 306 307 309 310 311 310 311 312 312 311 307 310 319 316 318 317 315 317 316 316 315 314 313 313 313 313 310 308 309 310 311 312 314 314 315 315 315 318 319 318 320 327 327 327
307 308 305 309 310 312 314 315 317 318 312 307 312 316 318 318 316 314 315 315 315 314 313 313 313 310 307 307 309 311 312 311 312 313 314 313 313 314 317 317 317 318 324 328 327
307 308 308 306 309 312 314 315 316 320 315 315 317 318 318 317 316 314 314 313 313 313 311 312 310 310 310 309 311 311 311 312 313 315 314 313 313 313 315 316 316 316 317 321 322
311 307 309 307 309 312 314 316 315 315 313 315 315 315 316 318 317 316 315 314 313 311 311 311 310 312 312 313 313 312 312 313 313 314 314 312 312 313 313 315 316 316 318 318 319
309 312 307 308 313 316 315 316 315 317 315 316 316 316 318 317 318 315 315 314 313 312 311 310 312 314 314 314 315 313 313 314 314 314 313 313 312 313 313 315 317 317 318 318 319
307 310 309 310 309 314 314 317 317 317 317 320 319 318 318 318 315 315 315 315 312 312 311 310 312 314 313 313 313 313 313 314 314 313 311 314 313 312 313 313 314 316 317 317 318
307 311 311 309 315 315 317 317 317 319 325 322 316 316 314 314 316 316 316 315 312 312 312 312 312 312 313 313 313 312 313 313 314 312 311 312 311 313 312 314 313 313 316 316 316
307 310 311 308 313 318 317 316 318 320 328 320 316 315 314 315 315 315 316 315 314 311 311 311 313 312 312 314 313 313 313 311 310 309 310 310 311 312 312 312 314 315 317 318 318
308 310 314 312 315 317 316 318 318 323 324 321 321 315 314 314 314 315 314 313 312 311 311 313 313 313 314 313 313 312 309 309 309 310 312 311 312 312 312 315 315 315 316 317 318
314 310 317 310 310 316 316 317 322 321 323 322 317 316 316 316 316 317 316 313 311 312 312 314 315 314 315 314 314 311 310 313 313 312 313 314 316 315 315 316 316 318 317 316 317
314 312 318 310 313 314 316 316 320 321 319 318 317 316 316 316 315 315 315 315 314 312 313 313 314 316 315 315 315 315 315 311 316 319 318 315 314 314 315 314 316 317 316 316 318
315 310 319 319 317 315 313 315 316 318 315 316 317 317 316 316 315 314 315 317 317 317 314 314 315 315 315 315 314 315 314 316 318 320 321 318 317 316 313 315 315 316 317 316 314
311 308 320 320 318 315 313 316 317 315 315 315 316 316 315 315 315 315 316 316 318 315 313 315 314 315 314 314 313 314 314 315 314 317 322 319 314 311 315 315 316 315 315 315 316
309 306 318 319 315 315 317 317 314 315 314 315 314 315 314 314 314 315 315 316 316 315 315 314 313 314 314 313 313 316 315 314 314 314 319 320 319 315 313 313 314 315 315 315 316
311 308 316 317 313 312 313 314 315 315 314 311 314 312 311 313 313 314 314 314 312 314 315 314 312 314 314 311 312 315 316 315 315 315 317 319 314 314 315 315 314 314 316 316 316
309 312 314 314 312 311 312 314 315 314 313 311 311 310 310 310 310 311 312 312 311 315 317 313 313 314 316 316 315 316 315 315 315 314 314 316 315 314 315 316 315 314 315 316 316
309 311 307 309 308 308 311 313 313 312 311 310 310 310 308 308 309 310 310 310 310 312 314 311 314 314 314 315 315 316 315 315 316 314 315 314 315 314 314 314 314 315 316 315 315
306 306 306 306 308 309 310 310 311 310 310 311 308 309 308 307 308 309 309 309 309 309 309 310 311 314 315 314 314 314 313 313 312 312 312 313 314 315 315 314 314 314 315 315 315
307 306 305 306 310 309 310 311 310 309 309 308 307 307 308 308 308 308 308 307 307 308 307 307 308 310 309 312 312 311 310 313 315 314 316 316 316 315 314 314 314 314 314 314 314
Wind_Speed
17 17 16 15 14 11 10 10 10 11 10 9 9 9 10 11 11 14 15 8 7 10 6 9 9 10 6 7 12 4 2 4 5 4 9 11 5 20 16 24 25 8 19 18 11
18 16 16 14 13 12 10 11 10 9 9 8 8 7 9 12 14 11 2 9 8 9 6 6 9 7 5 5 6 6 4 6 6 4 8 27 8 21 6 13 17 32 15 15 11
18 16 15 13 12 11 10 9 10 8 7 6 6 5 7 11 9 2 2 3 6 6 8 7 8 4 5 10 9 5 5 4 11 20 27 29 19 27 10 9 23 29 24 17 12
18 16 14 12 10 9 11 12 10 8 6 5 4 3 6 6 2 1 4 2 3 6 8 8 7 3 3 4 12 4 11 18 20 28 26 13 32 18 13 14 21 29 34 19 17
18 15 12 10 8 9 11 12 10 7 6 4 3 2 4 3 6 1 4 8 8 7 12 9 7 5 3 4 6 6 7 24 33 32 31 33 25 20 24 24 16 18 14 10 14
19 15 11 7 9 10 11 11 10 8 5 3 2 3 2 3 4 4 3 8 4 3 4 6 5 9 11 6 4 12 15 16 15 21 23 16 24 21 28 16 16 23 20 19 16
20 15 10 7 9 11 10 9 9 8 6 3 3 4 6 7 5 2 4 4 0 4 6 3 6 3 3 5 3 8 5 8 5 7 5 11 8 10 22 7 10 19 21 19 18
21 16 11 8 9 9 10 8 7 8 7 5 4 6 6 2 8 9 5 2 3 5 5 6 6 7 3 9 8 5 2 3 6 5 8 4 13 13 25 20 14 19 28 27 23
19 17 13 9 9 8 8 8 9 7 6 4 2 5 6 5 12 9 11 9 10 12 6 3 5 4 5 3 5 4 4 6 8 8 6 5 15 9 24 26 21 20 31 28 25
20 16 14 10 9 7 7 11 10 8 4 1 5 6 5 5 9 10 10 11 8 3 6 7 3 2 4 4 4 6 4 6 6 6 2 8 12 12 24 24 31 30 31 31 32
23 18 14 10 9 8 9 9 7 1 7 11 13 14 17 2 10 7 6 8 5 3 2 8 3 7 12 9 10 7 7 11 10 5 1 5 9 12 17 21 25 29 22 30 32
26 20 14 10 8 7 10 11 7 9 12 16 20 24 23 15 7 7 8 6 6 6 2 5 6 14 10 13 9 11 10 6 6 4 5 8 11 14 6 9 15 21 16 13 12
29 22 14 10 6 7 10 9 12 7 6 15 17 16 19 15 21 17 15 19 6 4 7 6 11 9 9 11 10 9 6 4 6 5 5 5 8 8 7 8 14 14 13 15 14
31 24 16 10 6 6 4 13 10 10 4 6 6 6 17 15 6 18 18 20 6 10 9 6 8 5 8 6 4 4 5 5 7 2 3 4 7 8 6 7 7 18 20 21 19
33 27 15 9 5 2 11 6 7 5 3 5 5 5 10 14 6 8 17 17 12 9 5 12 7 9 7 7 7 8 8 6 4 4 2 1 2 10 7 13 11 11 27 30 27
33 31 14 10 9 4 8 8 7 4 4 4 5 5 5 12 10 3 17 21 11 6 5 11 14 6 10 12 8 7 3 2 3 1 6 6 6 14 13 7 7 7 22 32 40
35 30 15 9 6 5 10 5 4 2 7 2 8 4 6 4 9 7 7 6 8 3 7 12 13 11 8 8 14 3 4 5 5 4 14 5 5 13 12 8 11 7 22 35 37
36 29 12 4 5 5 5 3 2 4 5 11 8 5 3 3 5 7 5 13 8 3 2 5 8 8 9 6 7 9 9 8 8 6 11 2 6 7 8 14 12 8 29 26 26
42 33 7 2 7 2 2 2 4 2 12 13 6 4 4 8 1 6 4 6 6 9 6 4 5 1 3 1 3 3 1 5 1 3 3 4 7 10 12 10 6 6 21 20 14
40 28 10 7 6 2 3 4 3 6 11 7 3 4 5 7 5 6 3 5 8 6 2 4 4 3 1 4 3 5 3 1 2 4 6 7 10 10 8 5 9 5 8 17 25
26 13 1 9 8 2 3 5 4 13 14 6 4 6 5 3 3 4 5 13 5 8 5 3 3 5 1 4 5 3 2 4 4 4 2 3 5 5 2 3 3 2 12 13 5
14 3 3 9 1 2 2 2 8 8 15 4 4 3 4 6 4 4 6 6 21 14 7 3 2 4 7 7 2 1 3 5 4 4 2 4 6 14 5 7 8 9 2 5 4
21 8 1 11 1 3 6 4 3 8 9 5 4 8 7 5 5 7 7 12 20 11 4 2 2 4 8 6 6 5 2 2 3 3 7 3 5 5 10 6 19 9 9 11 10
7 3 5 2 9 6 5 5 7 11 8 8 3 7 9 8 6 6 10 5 14 11 11 4 1 5 5 6 4 10 11 5 3 3 4 9 15 16 10 8 14 17 21 18 17
3 2 6 3 3 10 5 5 10 9 11 10 3 8 10 5 9 6 8 8 7 1 1 4 1 3 5 7 9 12 10 15 13 15 9 16 13 16 2 5 6 15 17 9 17
6 6 10 9 16 17 9 7 12 11 7 4 6 11 12 8 9 12 6 4 5 2 3 1 3 3 4 9 12 13 14 20 15 10 11 16 18 2 2 5 7 11 15 16 9
11 6 5 6 2 2 3 9 15 10 9 14 15 12 13 14 15 18 20 19 12 7 3 5 5 2 4 6 4 8 7 5 2 6 5 5 3 3 4 5 9 7 8 12 12
Wind_Direction
336 333 334 335 334 336 324 312 307 304 301 297 291 296 305 306 299 285 270 240 173 179 204 215 220 211 211 229 212 198 86 215 215 205 260 287 347 305 294 222 236 244 157 150 162
343 342 339 341 337 331 326 319 313 308 299 290 284 294 311 313 307 290 256 203 207 193 232 250 226 193 217 221 214 171 172 223 217 228 271 286 259 280 293 279 237 226 147 154 166
345 343 340 340 339 336 333 332 323 316 301 286 280 293 313 314 322 82 60 191 201 206 243 255 206 219 259 235 222 206 203 222 262 258 262 272 280 280 259 267 249 237 215 200 182
343 344 342 343 349 348 340 333 325 315 305 286 263 289 306 308 209 325 23 85 165 224 227 185 188 197 227 219 247 249 265 242 256 258 259 263 279 273 264 264 288 231 211 185 188
353 348 348 351 358 352 347 341 334 321 307 287 246 264 303 286 254 61 46 87 112 145 151 167 202 204 219 234 279 179 244 256 257 256 257 260 262 263 256 265 273 240 212 169 175
2 1 360 7 0 359 358 358 355 344 324 289 241 278 305 275 137 89 146 130 132 136 185 251 256 266 259 258 169 266 269 267 265 265 265 258 269 266 264 262 250 235 223 223 207
4 5 3 359 357 355 359 4 7 2 351 332 284 289 262 227 143 78 102 138 210 323 309 341 315 340 325 317 314 299 298 315 275 261 242 281 287 258 274 257 247 224 219 205 204
4 1 356 348 347 351 348 346 350 351 345 334 317 310 258 183 231 218 215 183 185 235 275 320 327 329 343 319 334 340 25 299 288 308 277 163 263 272 278 278 259 260 241 218 220
2 359 351 341 341 342 341 331 318 326 327 327 316 323 274 194 212 210 220 259 278 243 240 324 288 302 303 70 0 348 249 276 298 261 264 186 274 250 269 267 266 249 220 218 224
355 353 349 336 337 337 342 332 315 296 298 269 253 316 235 247 226 242 209 242 281 290 264 246 224 52 3 82 226 236 241 259 240 287 267 292 275 284 279 270 251 240 230 233 236
351 344 344 329 324 319 333 347 354 3 267 259 276 259 275 27 154 202 216 233 261 266 264 285 94 234 239 206 228 233 250 261 277 236 252 254 265 273 275 290 244 245 218 226 229
351 343 332 329 311 314 328 328 321 321 295 277 257 264 267 268 275 234 238 227 200 229 290 357 255 251 242 257 228 240 240 252 265 281 298 287 284 287 261 259 239 231 226 224 220
352 344 331 325 298 309 323 349 347 348 285 295 241 236 234 249 236 249 227 221 191 220 257 198 249 272 238 257 254 253 223 243 255 292 306 317 292 302 302 283 277 233 244 258 226
353 346 334 321 292 297 7 350 345 339 17 277 193 238 230 228 257 242 222 214 194 211 245 240 265 298 317 295 288 234 232 262 290 319 253 79 290 290 289 301 286 284 292 282 228
350 342 330 308 287 292 339 344 330 311 335 182 187 220 195 181 181 206 199 209 202 212 149 250 267 282 299 263 273 248 236 237 238 247 92 88 273 270 303 286 269 283 299 296 281
350 340 330 281 263 332 333 318 328 52 265 222 152 183 146 205 239 232 204 219 224 206 223 238 253 181 239 267 262 258 227 30 47 113 273 221 183 285 276 263 299 268 301 298 294
352 342 330 264 202 315 322 350 46 160 300 43 356 170 222 246 246 231 205 198 195 176 243 252 252 255 250 252 273 251 78 293 294 279 265 258 244 253 278 260 247 299 324 303 280
346 348 335 307 210 278 344 55 193 271 320 343 360 331 198 12 338 355 331 230 234 210 196 216 278 214 235 186 215 232 199 220 257 250 276 315 235 254 237 262 275 315 355 310 262
341 341 307 130 159 148 21 83 222 288 356 339 330 312 341 344 35 12 318 273 195 183 210 228 244 196 251 263 98 282 238 174 105 48 334 278 292 303 283 286 243 57 26 347 130
334 330 302 202 181 164 86 234 264 355 350 322 330 307 297 307 315 326 287 277 337 334 40 273 310 187 257 3 335 163 192 236 90 211 250 239 257 250 301 327 289 119 99 356 5
343 334 267 193 188 185 172 237 284 351 14 326 290 276 280 328 333 313 277 303 328 339 335 259 212 280 133 187 215 346 343 76 124 180 203 290 260 243 194 238 295 173 143 144 221
347 332 173 209 262 240 211 250 339 329 331 288 316 314 327 289 257 294 268 309 313 331 317 326 185 218 230 234 208 95 156 136 146 241 228 239 269 261 325 290 181 156 169 184 137
328 297 50 202 256 343 315 308 269 326 329 35 342 6 3 4 352 340 349 338 19 358 328 339 345 355 344 355 19 27 5 87 107 114 199 225 250 251 317 344 309 296 191 238 269
318 330 344 272 35 0 331 293 340 345 332 17 316 351 343 328 337 294 300 328 4 30 29 30 96 180 235 240 273 295 294 222 173 209 219 222 270 273 287 301 329 302 273 266 241
327 323 16 333 341 321 292 354 339 7 10 334 311 358 334 304 311 295 330 326 325 132 81 107 195 225 245 254 264 274 284 287 223 232 224 261 244 258 262 293 306 345 351 300 273
18 5 342 307 323 336 357 4 349 352 332 311 328 315 309 281 280 289 280 220 224 275 120 18 250 210 247 249 252 250 245 242 264 274 261 260 257 107 213 298 338 348 15 27 16
349 306 347 279 201 0 255 308 318 342 308 330 317 306 296 285 278 259 256 245 237 225 178 185 167 177 261 232 308 289 244 220 290 348 8 306 351 296 279 318 314 354 3 351 349